Location: Melizzano
(41.1500°N, 14.5000°E)
Time: 08:16:15
(UTC+00:00)

Cosmos 2315 Rocket - Pass Details

Date: 11 May 2021
Orbit: 965 x 1003 km, 82.9° (Epoch: 15 June)

Event Time Altitude Azimuth Distance (km) Brightness Sun altitude
Exits shadow 19:40:22 - 181° (S) 3,173 6.3 -15.1°
Reaches altitude 10° 19:41:28 10° 181° (S) 2,761 6.0 -15.2°
Maximum altitude 19:47:49 81° 96° (E) 1,020 4.0 -16.1°
Drops below altitude 10° 19:54:13 10° 10° (N) 2,783 6.8 -17.0°
Sets 19:56:45 0° 9° (N) 3,735 7.6 -17.3°
